Find Starlink 34323

NORAD ID: 64219 Int'l Des: 2025-117 Owner: SPXS Country: US Constellation: starlink operational
LEOCIRCULAR

現在のビュー

3D地球を読み込み中...

About Starlink 34323

Starlink 34323 (NORAD 64219) is a starlink constellation satellite (v2 mini) launched May 31, 2025 by SPXS of US. It operates in LEO, CIRCULAR orbit with a mass of 575.00 kg.

次回通過

Passes for default location (London). Set your location on the main map for personalized predictions.

高度履歴

Loading altitude history...

軌道要素

1 64219U 25117S 26263.51818162 .00029542 00000-0 88182-3 0 9991
2 64219 53.1592 213.3083 0000871 232.1587 127.9337 15.34407736 74400
Epoch: Sep 20, 2026 • Age: 6 hours

現在のステータス

高度 465.5 km
遠地点 / 近地点 N/A
速度 7.64 km/s
衛星直下点 33.43°N, 41.32°W
打ち上げ日 May 31, 2025
運用期間 1.3 years
タイプ internet

技術仕様

分類 Payload
質量 575.00 kg
乾燥質量 530.00 kg
長さ 0.30 m
スパン 29.00 m
形状 ? Box + pan
製造者 SPXS
バスタイプ Starlink V2MO
フェーズステータス In Orbit
所有者/国 SPXS/US

Most Searched